"2009-08-03 00:00:00",1117729,4.632,78.9,2.148,0.37,22.99,111.0786,27.67,28.69,17.53,0,111.4,13.07,28.52,40.9
"2009-08-03 00:00:30",1117730,4.415,73.21,3.622,0.469,22.99,111.0895,27.7,28.7,17.65,0,111.4,13.06,28.54,35.2
"2009-08-03 00:01:00",1117731,3.874,81.8,3.74,0.276,22.9,111.0955,27.71,28.72,17.46,0,111.4,13.06,28.56,43.8
"2009-08-03 00:01:30",1117732,3.958,82.6,3.712,0.375,22.88,111.1075,27.74,28.73,17.09,0,111.4,13.06,28.59,44.6
"2009-08-03 00:02:00",1117733,4.444,86.8,3.923,0.303,22.88,111.115,27.76,28.74,16.96,0,111.4,13.06,28.61,48.8
"2009-08-03 00:02:30",1117734,4.213,94.9,5.091,0.232,22.91,111.1152,27.76,28.75,17.02,0,111.4,13.06,28.61,56.9
"2009-08-03 00:03:00",1117735,3.97,93.7,4.305,0.239,22.87,111.1201,27.77,28.77,17.09,0,111.4,13.06,28.62,55.7
"2009-08-03 00:03:30",1117736,4.171,92.9,2.627,0.216,22.85,111.1266,27.79,28.78,16.9,0,111.4,13.06,28.64,54.9
"2009-08-03 00:04:00",1117737,4.366,97.5,2.631,0.158,22.82,111.1404,27.83,28.8,17.11,0,111.4,13.06,28.67,59.5
"2009-08-03 00:04:30",1117738,4.298,94.5,3.635,0.192,22.81,111.1495,27.85,28.79,17.12,0,111.4,13.07,28.70,56.5
"2009-08-03 00:05:00",1117739,4.192,80.5,6.234,0.289,22.93,111.1479,27.85,28.82,17.2,0,111.4,13.07,28.69,42.5
"2009-08-03 00:05:30",1117740,4.721,83,5.949,0.158,22.92,111.1488,27.85,28.83,17.33,0,111.4,13.07,28.70,45.0
"2009-08-03 00:06:00",1117741,5.179,86,2.425,0.388,22.88,111.1535,27.86,28.84,17.04,0,111.4,13.07,28.71,48.0
"2009-08-03 00:06:30",1117742,5.127,85.7,2.898,0.431,22.98,111.1572,27.87,28.86,16.91,0,111.4,13.07,28.72,47.7
"2009-08-03 00:07:00",1117743,5.272,87.9,4.144,0.235,22.92,111.1663,27.89,28.87,16.72,0,111.4,13.07,28.74,49.9
"2009-08-03 00:07:30",1117744,4.901,87.5,6.207,0.24,22.93,111.1787,27.92,28.89,16.68,0,111.4,13.07,28.77,49.5
"2009-08-03 00:08:00",1117745,5.092,82.7,3.729,0.319,23.01,111.1794,27.93,28.9,17.19,0,111.4,13.07,28.78,44.7
"2009-08-03 00:08:30",1117746,4.871,86.4,1.84,0.307,23.03,111.1843,27.94,28.91,17.53,0,111.4,13.07,28.79,48.4
"2009-08-03 00:09:00",1117747,4.951,84.9,2.068,0.255,23.08,111.1818,27.93,28.92,17.46,0,111.4,13.07,28.78,46.9
"2009-08-03 00:09:30",1117748,4.728,82.3,5.706,0.268,22.97,111.1822,27.93,28.93,17.48,0,111.4,13.07,28.78,44.3
"2009-08-03 00:10:00",1117749,4.693,75.88,2.249,0.218,22.97,111.1843,27.94,28.93,16.83,0,111.4,13.07,28.79,37.9
"2009-08-03 00:10:30",1117750,4.631,75.71,2.856,0.245,22.97,111.189,27.95,28.92,16.75,0,111.4,13.08,28.80,37.7
"2009-08-03 00:11:00",1117751,4.125,70.78,4.194,0.457,23.05,111.193,27.96,28.95,16.82,0,111.4,13.08,28.81,32.8
"2009-08-03 00:11:30",1117752,4.32,70.72,2.808,0.612,22.96,111.2083,28,28.96,16.92,0,111.4,13.07,28.85,32.7
"2009-08-03 00:12:00",1117753,4.894,78.2,5.25,0.26,22.99,111.2161,28.02,28.98,16.32,0,111.4,13.08,28.87,40.2
"2009-08-03 00:12:30",1117754,4.814,81,1.138,0.156,23.02,111.213,28.01,28.97,15.88,0,111.4,13.08,28.86,43.0
"2009-08-03 00:13:00",1117755,4.175,81.9,1.027,0.259,22.98,111.2158,28.02,28.99,15.72,0,111.4,13.08,28.87,43.9
"2009-08-03 00:13:30",1117756,4.092,79.39,3.119,0.298,22.99,111.2145,28.02,29,15.85,0,111.4,13.08,28.87,41.4
"2009-08-03 00:14:00",1117757,4.571,88.4,8.09,0.524,22.94,111.218,28.03,29.02,16.17,0,111.4,13.08,28.88,50.4
"2009-08-03 00:14:30",1117758,4.653,94.1,6.554,0.135,22.92,111.2223,28.04,29.02,16.27,0,111.4,13.08,28.89,56.1
"2009-08-03 00:15:00",1117759,4.648,96.8,3.283,0.208,22.91,111.2214,28.03,29.02,16.38,0,111.4,13.07,28.88,58.8
"2009-08-03 00:15:30",1117760,4.819,96.7,4.28,0.181,22.89,111.2232,28.04,29.05,16.4,0,111.4,13.08,28.89,58.7
"2009-08-03 00:16:00",1117761,4.952,99.2,3.637,0.25,22.91,111.2225,28.04,29.05,16.5,0,111.4,13.08,28.89,61.2
"2009-08-03 00:16:30",1117762,5.017,102.1,3.889,0.25,22.92,111.2186,28.03,29.06,16.56,0,111.4,13.07,28.88,64.1
"2009-08-03 00:17:00",1117763,5.265,96.8,4.295,0.357,22.99,111.2198,28.03,29.07,16.76,0,111.4,13.07,28.88,58.8
"2009-08-03 00:17:30",1117764,4.732,101.5,4.066,0.262,22.97,111.2196,28.03,29.05,16.87,0,111.4,13.06,28.88,63.5
"2009-08-03 00:18:00",1117765,4.428,98.6,4.819,0.239,22.97,111.2171,28.02,29.06,16.58,0,111.4,13.06,28.87,60.6
"2009-08-03 00:18:30",1117766,4.521,95.2,4.159,0.173,22.94,111.218,28.03,29.07,16.38,0,111.4,13.06,28.88,57.2
"2009-08-03 00:19:00",1117767,5.131,89.8,3.89,0.242,22.92,111.2218,28.04,29.06,16.25,0,111.4,13.06,28.89,51.8
"2009-08-03 00:19:30",1117768,5.054,88.7,3.391,0.322,22.93,111.2182,28.03,29.07,16.53,0,111.4,13.06,28.88,50.7
"2009-08-03 00:20:00",1117769,5.243,95.9,3.023,0.221,22.95,111.2128,28.01,29.06,16.89,0,111.4,13.06,28.86,57.9
"2009-08-03 00:20:30",1117770,5.404,94.9,2.525,0.331,22.92,111.212,28.01,29.07,16.91,0,111.4,13.06,28.86,56.9
"2009-08-03 00:21:00",1117771,5.624,92.3,1.507,0.294,22.9,111.2108,28.01,29.06,16.8,0,111.4,13.06,28.86,54.3
"2009-08-03 00:21:30",1117772,5.597,96.3,2.053,0.214,22.91,111.2108,28.01,29.06,16.8,0,111.4,13.06,28.86,58.3
"2009-08-03 00:22:00",1117773,5.671,95.7,2.524,0.199,22.89,111.2102,28.01,29.05,16.9,0,111.4,13.07,28.86,57.7
"2009-08-03 00:22:30",1117774,5.897,94.6,2.187,0.357,22.86,111.2122,28.01,29.06,17.02,0,111.4,13.07,28.86,56.6
"2009-08-03 00:23:00",1117775,6.018,94.4,2.786,0.284,22.93,111.1988,27.98,29.04,16.92,0,111.4,13.07,28.83,56.4
"2009-08-03 00:23:30",1117776,6.467,91,1.383,0.282,22.9,111.1869,27.95,29.04,16.73,0,111.4,13.07,28.79,53.0
"2009-08-03 00:24:00",1117777,5.833,89.4,3.594,0.349,22.97,111.1821,27.93,29.02,16.68,0,111.4,13.07,28.78,51.4
"2009-08-03 00:24:30",1117778,5.4,94.6,4.312,0.441,22.95,111.1781,27.92,29,16.62,0,111.4,13.08,28.77,56.6
"2009-08-03 00:25:00",1117779,5.652,99,2.711,0.184,22.96,111.184,27.94,29.01,16.48,0,111.4,13.07,28.79,61.0
"2009-08-03 00:25:30",1117780,5.627,98.7,3.714,0.389,23.01,111.1806,27.93,29,16.63,0,111.4,13.07,28.78,60.7
"2009-08-03 00:26:00",1117781,6.189,93.4,2.499,0.28,22.97,111.1816,27.93,28.97,16.46,0,111.4,13.08,28.78,55.4
"2009-08-03 00:26:30",1117782,6.227,91.6,2.168,0.268,22.96,111.1746,27.91,28.97,16.14,0,111.4,13.07,28.76,53.6
"2009-08-03 00:27:00",1117783,5.193,89.4,2.459,0.235,22.97,111.1675,27.9,28.96,16.21,0,111.4,13.08,28.74,51.4
"2009-08-03 00:27:30",1117784,5.64,90.3,3.452,0.345,22.99,111.1613,27.88,28.95,15.98,0,111.4,13.08,28.73,52.3
"2009-08-03 00:28:00",1117785,5.866,95.2,3.807,0.493,22.99,111.1655,27.89,28.95,16.35,0,111.4,13.08,28.74,57.2
"2009-08-03 00:28:30",1117786,5.171,88.1,4.479,0.178,22.91,111.1641,27.89,28.93,15.77,0,111.4,13.08,28.74,50.1
"2009-08-03 00:29:00",1117787,5.423,89.5,2.318,0.2,22.92,111.165,27.89,28.93,15.38,0,111.4,13.08,28.74,51.5
"2009-08-03 00:29:30",1117788,5.818,92,1.368,0.289,22.92,111.1653,27.89,28.92,14.96,0,111.4,13.08,28.74,54.0
"2009-08-03 00:30:00",1117789,5.648,91,2.147,0.208,22.9,111.163,27.88,28.93,15.09,0,111.4,13.08,28.73,53.0
"2009-08-03 00:30:30",1117790,5.685,92.3,2.225,0.237,22.92,111.1602,27.88,28.92,15.1,0,111.4,13.08,28.73,54.3
"2009-08-03 00:31:00",1117791,5.54,90.4,3.799,0.102,22.87,111.1611,27.88,28.92,15.12,0,111.4,13.08,28.73,52.4
"2009-08-03 00:31:30",1117792,5.781,88.3,1.802,0.363,22.92,111.1622,27.88,28.92,15.13,0,111.4,13.08,28.73,50.3
"2009-08-03 00:32:00",1117793,5.322,88.8,1.939,0.183,22.93,111.1628,27.88,28.91,15.53,0,111.4,13.08,28.73,50.8
"2009-08-03 00:32:30",1117794,5.646,95.8,4.674,0.179,22.95,111.1625,27.88,28.91,15.75,0,111.4,13.08,28.73,57.8
"2009-08-03 00:33:00",1117795,5.561,99.3,4.165,0.226,22.93,111.1644,27.89,28.91,16.09,0,111.4,13.08,28.74,61.3
"2009-08-03 00:33:30",1117796,5.483,97.3,3.203,0.201,22.96,111.1638,27.89,28.91,16.35,0,111.4,13.07,28.74,59.3
"2009-08-03 00:34:00",1117797,5.511,99.6,2.165,0.253,22.98,111.1644,27.89,28.92,16.57,0,111.4,13.07,28.74,61.6
"2009-08-03 00:34:30",1117798,5.427,96.7,3.996,0.277,22.97,111.1638,27.89,28.92,16.65,0,111.4,13.07,28.74,58.7
"2009-08-03 00:35:00",1117799,4.935,84.8,3.726,0.202,22.98,111.1625,27.88,28.9,15.81,0,111.4,13.06,28.73,46.8
"2009-08-03 00:35:30",1117800,5.232,97.8,5.752,0.297,22.92,111.1616,27.88,28.91,15.77,0,111.4,13.06,28.73,59.8
"2009-08-03 00:36:00",1117801,5.527,96.1,3.752,0.282,22.94,111.1644,27.89,28.9,16.1,0,111.4,13.07,28.74,58.1
"2009-08-03 00:36:30",1117802,5.872,98.6,3.179,0.123,22.88,111.1659,27.89,28.91,16.07,0,111.4,13.06,28.74,60.6
"2009-08-03 00:37:00",1117803,5.732,99.2,0.944,0.091,22.93,111.1641,27.89,28.91,16.26,0,111.4,13.07,28.74,61.2
"2009-08-03 00:37:30",1117804,6.069,96.7,2.349,0.223,22.9,111.1653,27.89,28.91,16.78,0,111.4,13.07,28.74,58.7
"2009-08-03 00:38:00",1117805,6.191,93,2.689,0.394,22.89,111.165,27.89,28.9,17.1,0,111.4,13.06,28.74,55.0
"2009-08-03 00:38:30",1117806,5.986,95.2,3.145,0.278,22.94,111.165,27.89,28.91,17.2,0,111.4,13.07,28.74,57.2
"2009-08-03 00:39:00",1117807,5.804,95.5,2.153,0.424,22.9,111.1645,27.89,28.89,17.12,0,111.4,13.07,28.74,57.5
"2009-08-03 00:39:30",1117808,5.977,100.3,1.727,0.149,22.88,111.1564,27.87,28.88,16.31,0,111.4,13.07,28.72,62.3
"2009-08-03 00:40:00",1117809,5.692,98.7,0.984,0.146,22.88,111.1429,27.83,28.9,16.21,0,111.4,13.08,28.68,60.7
"2009-08-03 00:40:30",1117810,5.533,98.7,0.88,0.119,22.91,111.1387,27.82,28.9,16.19,0,111.4,13.08,28.67,60.7
"2009-08-03 00:41:00",1117811,5.387,98.9,1.482,0.095,22.93,111.1322,27.81,28.87,16.21,0,111.4,13.08,28.65,60.9
"2009-08-03 00:41:30",1117812,5.859,98.8,1.519,0.364,22.92,111.1317,27.8,28.87,16.37,0,111.4,13.08,28.65,60.8
"2009-08-03 00:42:00",1117813,6.33,102.1,2.627,0.101,22.89,111.1317,27.8,28.86,16.56,0,111.4,13.08,28.65,64.1
"2009-08-03 00:42:30",1117814,6.483,102.4,3.212,0.177,22.93,111.1306,27.8,28.85,17.49,0,111.4,13.08,28.65,64.4
"2009-08-03 00:43:00",1117815,6.142,103.2,1.595,0.13,22.95,111.123,27.78,28.84,16.77,0,111.4,13.08,28.63,65.2
"2009-08-03 00:43:30",1117816,5.785,104.3,2.245,0.191,22.91,111.1136,27.76,28.82,16.13,0,111.4,13.08,28.61,66.3
"2009-08-03 00:44:00",1117817,5.58,105.6,3.209,0.147,22.91,111.1077,27.74,28.81,16.39,0,111.4,13.08,28.59,67.6
"2009-08-03 00:44:30",1117818,5.754,107.7,1.792,0.157,22.9,111.1081,27.74,28.82,16.61,0,111.4,13.08,28.59,69.7
"2009-08-03 00:45:00",1117819,5.521,108.4,1.841,0.217,22.9,111.1021,27.73,28.78,15.72,0,111.4,13.08,28.58,70.4
"2009-08-03 00:45:30",1117820,5.634,106.9,2.05,0.395,22.89,111.1002,27.72,28.78,15.64,0,111.4,13.08,28.57,68.9
"2009-08-03 00:46:00",1117821,6.643,102.7,2.806,0.327,22.9,111.1002,27.72,28.78,16.66,0,111.4,13.08,28.57,64.7
"2009-08-03 00:46:30",1117822,5.98,109.8,3.682,0.327,22.85,111.1021,27.73,28.77,16.75,0,111.4,13.08,28.58,71.8
"2009-08-03 00:47:00",1117823,5.728,105.7,2.713,0.225,22.87,111.1016,27.73,28.77,16.6,0,111.4,13.08,28.57,67.7
"2009-08-03 00:47:30",1117824,5.992,105.2,1.627,0.187,22.87,111.0964,27.71,28.74,16.22,0,111.4,13.08,28.56,67.2
"2009-08-03 00:48:00",1117825,5.664,104.2,1.419,0.197,22.88,111.0874,27.69,28.74,15.68,0,111.4,13.08,28.54,66.2
"2009-08-03 00:48:30",1117826,6.198,103,1.869,0.208,22.86,111.0831,27.68,28.74,16.42,0,111.4,13.08,28.53,65.0
"2009-08-03 00:49:00",1117827,5.985,108.7,1.681,0.131,22.84,111.0799,27.67,28.73,16.84,0,111.4,13.08,28.52,70.7
"2009-08-03 00:49:30",1117828,5.938,111,1.317,0.11,22.88,111.0792,27.67,28.72,16.33,0,111.4,13.08,28.52,73.0
"2009-08-03 00:50:00",1117829,5.533,112.7,1.712,0.125,22.89,111.0724,27.65,28.71,16.01,0,111.4,13.08,28.50,74.7
"2009-08-03 00:50:30",1117830,5.504,109.2,0.871,0.133,22.84,111.0727,27.65,28.71,16.3,0,111.4,13.08,28.50,71.2
"2009-08-03 00:51:00",1117831,5.675,112.1,1.606,0.093,22.87,111.0737,27.65,28.7,16.34,0,111.4,13.08,28.50,74.1
"2009-08-03 00:51:30",1117832,6.097,109.7,1.183,0.096,22.85,111.0734,27.65,28.69,17.04,0,111.3,13.08,28.50,71.7
"2009-08-03 00:52:00",1117833,5.855,108,0.876,0.227,22.88,111.0723,27.65,28.68,17.61,0,111.4,13.08,28.50,70.0
"2009-08-03 00:52:30",1117834,6.004,110.4,2.067,0.268,22.85,111.0714,27.65,28.68,17.37,0,111.4,13.07,28.50,72.4
"2009-08-03 00:53:00",1117835,6.08,110.8,3.726,0.128,22.87,111.0672,27.64,28.68,17.64,0,111.4,13.07,28.49,72.8
"2009-08-03 00:53:30",1117836,5.885,106.3,1.054,0.192,22.9,111.0574,27.61,28.67,17.43,0,111.4,13.07,28.46,68.3
"2009-08-03 00:54:00",1117837,5.9,111,2.176,0.074,22.94,111.051,27.6,28.66,17.07,0,111.3,13.07,28.44,73.0
"2009-08-03 00:54:30",1117838,6.424,108.9,1.461,0.245,22.86,111.0456,27.58,28.64,17.43,0,111.3,13.07,28.43,70.9
"2009-08-03 00:55:00",1117839,6.544,110.6,1.233,0.163,22.93,111.04,27.57,28.64,17.6,0,111.3,13.07,28.42,72.6
"2009-08-03 00:55:30",1117840,6.241,111.8,1.266,0.118,22.9,111.04,27.57,28.63,17.82,0,111.3,13.07,28.42,73.8
"2009-08-03 00:56:00",1117841,6.023,110.7,1.092,0.084,22.89,111.04,27.57,28.61,17.76,0,111.3,13.08,28.42,72.7
"2009-08-03 00:56:30",1117842,6.126,110.4,1.692,0.141,22.87,111.0392,27.57,28.6,17.73,0,111.3,13.08,28.41,72.4
"2009-08-03 00:57:00",1117843,6.263,108.2,1.945,0.11,22.87,111.0305,27.54,28.6,17.63,0,111.3,13.08,28.39,70.2
"2009-08-03 00:57:30",1117844,6.23,108.2,1.752,0.109,22.91,111.0176,27.51,28.58,17.61,0,111.3,13.08,28.36,70.2
"2009-08-03 00:58:00",1117845,6.411,106.9,2.288,0.171,22.9,111.0145,27.5,28.59,17.67,0,111.3,13.08,28.35,68.9
"2009-08-03 00:58:30",1117846,6.618,107.3,1.365,0.098,22.89,111.0089,27.49,28.56,18,0,111.3,13.08,28.34,69.3
"2009-08-03 00:59:00",1117847,6.463,109.3,1.635,0.16,22.86,111.0067,27.48,28.55,18.27,0,111.3,13.08,28.33,71.3
"2009-08-03 00:59:30",1117848,6.191,111.4,1.149,0.212,22.85,111.0064,27.48,28.57,18.51,0,111.3,13.08,28.33,73.4
"2009-08-03 01:00:00",1117849,6.326,110,2.155,0.24,22.87,111.0053,27.48,28.55,18.32,0,111.3,13.08,28.33,72.0
"2009-08-03 01:00:30",1117850,6.121,110.8,2.233,0.284,22.87,111.0041,27.48,28.55,18.22,0,111.3,13.08,28.32,72.8
"2009-08-03 01:01:00",1117851,6.398,109.2,2.441,0.174,22.92,110.9966,27.46,28.54,17.73,0,111.3,13.08,28.30,71.2
"2009-08-03 01:01:30",1117852,6.763,110.2,2.822,0.246,22.89,110.9879,27.43,28.5,17.79,0,111.3,13.08,28.28,72.2
"2009-08-03 01:02:00",1117853,6.403,105,1.265,0.106,22.96,110.9806,27.42,28.51,17.46,0,111.3,13.08,28.26,67.0
"2009-08-03 01:02:30",1117854,6.319,109.5,1.817,0.12,22.87,110.9744,27.4,28.5,17.28,0,111.3,13.08,28.25,71.5
"2009-08-03 01:03:00",1117855,6.184,109.5,1.52,0.18,22.83,110.9727,27.39,28.49,17.56,0,111.3,13.08,28.24,71.5
"2009-08-03 01:03:30",1117856,6.318,107.3,0.781,0.12,22.86,110.9727,27.39,28.47,17.45,0,111.3,13.08,28.24,69.3
"2009-08-03 01:04:00",1117857,6.446,105.9,0.954,0.106,22.94,110.9725,27.39,28.46,17.17,0,111.3,13.08,28.24,67.9
"2009-08-03 01:04:30",1117858,6.359,106,1.415,0.156,22.92,110.9694,27.39,28.46,17.16,0,111.3,13.08,28.23,68.0
"2009-08-03 01:05:00",1117859,6.099,106.4,1.145,0.12,22.86,110.9635,27.37,28.45,17.27,0,111.3,13.08,28.22,68.4
"2009-08-03 01:05:30",1117860,6.002,108.2,1.129,0.114,22.84,110.9531,27.34,28.43,17.52,0,111.3,13.08,28.19,70.2
"2009-08-03 01:06:00",1117861,5.884,107,3.695,0.157,22.84,110.9483,27.33,28.41,17.71,0,111.3,13.08,28.18,69.0
"2009-08-03 01:06:30",1117862,5.946,104.8,1.189,0.12,22.84,110.9472,27.33,28.43,17.73,0,111.3,13.08,28.18,66.8
"2009-08-03 01:07:00",1117863,5.97,104.9,1.355,0.201,22.87,110.9441,27.32,28.4,17.71,0,111.3,13.08,28.17,66.9
"2009-08-03 01:07:30",1117864,6.313,103.2,0.859,0.095,22.87,110.9394,27.31,28.41,17.55,0,111.3,13.08,28.16,65.2
"2009-08-03 01:08:00",1117865,6.312,102.5,0.578,0.137,22.88,110.94,27.31,28.39,17.37,0,111.3,13.08,28.16,64.5
"2009-08-03 01:08:30",1117866,6.27,101.4,0.78,0.069,22.94,110.9409,27.31,28.38,16.63,0,111.3,13.08,28.16,63.4
"2009-08-03 01:09:00",1117867,6.243,102.3,1.046,0.115,22.96,110.9391,27.31,28.39,16.42,0,111.3,13.08,28.16,64.3
"2009-08-03 01:09:30",1117868,6.2,105.5,1.018,0.111,22.93,110.9394,27.31,28.36,16.77,0,111.3,13.08,28.16,67.5
"2009-08-03 01:10:00",1117869,6.341,101.8,1.017,0.071,22.93,110.9399,27.31,28.37,16.37,0,111.3,13.08,28.16,63.8
"2009-08-03 01:10:30",1117870,6.383,100.6,0.642,0.08,22.96,110.9357,27.3,28.36,15.71,0,111.3,13.08,28.15,62.6
"2009-08-03 01:11:00",1117871,6.489,101.8,0.625,0.07,22.94,110.9304,27.29,28.35,15.78,0,111.3,13.08,28.13,63.8
"2009-08-03 01:11:30",1117872,6.394,102.3,0.761,0.08,22.91,110.9262,27.28,28.34,15.98,0,111.3,13.08,28.12,64.3
"2009-08-03 01:12:00",1117873,6.306,102.1,1.467,0.046,22.94,110.929,27.28,28.34,15.79,0,111.3,13.08,28.13,64.1
"2009-08-03 01:12:30",1117874,6.39,102.9,0.906,0.158,22.94,110.9263,27.28,28.32,15.83,0,111.3,13.08,28.12,64.9
"2009-08-03 01:13:00",1117875,6.373,104.1,0.781,0.089,22.9,110.9294,27.28,28.33,15.88,0,111.3,13.08,28.13,66.1
"2009-08-03 01:13:30",1117876,6.438,103,0.47,0.063,22.92,110.9317,27.29,28.33,15.63,0,111.3,13.08,28.14,65.0
"2009-08-03 01:14:00",1117877,6.656,103.2,1.1,0.111,22.94,110.9322,27.29,28.31,15.47,0,111.3,13.08,28.14,65.2
"2009-08-03 01:14:30",1117878,6.519,104.4,2.288,0.135,22.95,110.929,27.28,28.32,15.64,0,111.3,13.08,28.13,66.4
"2009-08-03 01:15:00",1117879,6.135,105.1,1.696,0.189,22.89,110.9311,27.29,28.32,15.93,0,111.3,13.09,28.13,67.1
"2009-08-03 01:15:30",1117880,6.287,105.1,0.967,0.085,22.9,110.9325,27.29,28.31,15.74,0,111.3,13.09,28.14,67.1
"2009-08-03 01:16:00",1117881,6.28,105.1,0.708,0.129,22.91,110.9328,27.29,28.31,16,0,111.3,13.09,28.14,67.1
"2009-08-03 01:16:30",1117882,6.432,106.5,0.966,0.087,22.91,110.9331,27.29,28.31,16.32,0,111.3,13.09,28.14,68.5
"2009-08-03 01:17:00",1117883,6.458,106.9,0.62,0.093,22.92,110.9322,27.29,28.3,16.65,0,111.3,13.09,28.14,68.9
"2009-08-03 01:17:30",1117884,6.422,108.6,0.57,0.08,22.91,110.9334,27.29,28.3,16.24,0,111.3,13.09,28.14,70.6
"2009-08-03 01:18:00",1117885,6.288,108.5,1.032,0.093,22.91,110.9334,27.29,28.3,16.05,0,111.3,13.09,28.14,70.5
"2009-08-03 01:18:30",1117886,6.177,109.5,1.697,0.135,22.91,110.9334,27.29,28.29,16.45,0,111.3,13.09,28.14,71.5
"2009-08-03 01:19:00",1117887,6.121,109.5,0.841,0.072,22.9,110.9331,27.29,28.29,16.48,0,111.3,13.09,28.14,71.5
"2009-08-03 01:19:30",1117888,6.106,107.2,1.249,0.067,22.91,110.9292,27.28,28.28,16.59,0,111.3,13.09,28.13,69.2
"2009-08-03 01:20:00",1117889,6.156,108.4,1.608,0.066,22.93,110.918,27.25,28.29,16.36,0,111.3,13.09,28.10,70.4
"2009-08-03 01:20:30",1117890,6.288,112.7,0.612,0.046,22.9,110.9125,27.24,28.26,16.17,0,111.3,13.09,28.09,74.7
"2009-08-03 01:21:00",1117891,6.343,113.6,0.267,0.033,22.92,110.9082,27.23,28.25,16.19,0,111.3,13.09,28.08,75.6
"2009-08-03 01:21:30",1117892,6.239,113.6,0.472,0.049,22.94,110.9026,27.21,28.25,16.4,0,111.3,13.09,28.06,75.6
"2009-08-03 01:22:00",1117893,6.206,113.9,0.884,0.108,22.96,110.901,27.21,28.26,16.08,0,111.3,13.09,28.06,75.9
"2009-08-03 01:22:30",1117894,6.088,113.5,0.588,0.058,22.97,110.9019,27.21,28.25,15.93,0,111.3,13.09,28.06,75.5
"2009-08-03 01:23:00",1117895,6.23,114.5,0.553,0.044,22.94,110.905,27.22,28.23,16.31,0,111.3,13.09,28.07,76.5
"2009-08-03 01:23:30",1117896,6.19,114,0.518,0.042,22.96,110.9044,27.22,28.23,16.44,0,111.3,13.09,28.07,76.0
"2009-08-03 01:24:00",1117897,6.123,113.8,0.618,0.062,23,110.9028,27.22,28.23,16.21,0,111.3,13.09,28.06,75.8
"2009-08-03 01:24:30",1117898,6.087,115.2,1.904,0.103,22.97,110.8982,27.2,28.21,15.81,0,111.3,13.09,28.05,77.2
"2009-08-03 01:25:00",1117899,6.027,115.6,1.127,0.05,22.98,110.8935,27.19,28.21,16.3,0,111.3,13.09,28.04,77.6
"2009-08-03 01:25:30",1117900,5.998,115.6,0.543,0.053,22.99,110.888,27.18,28.21,16.36,0,111.3,13.09,28.02,77.6
"2009-08-03 01:26:00",1117901,5.816,113.4,1.617,0.122,23.01,110.8852,27.17,28.2,15.88,0,111.3,13.09,28.02,75.4
"2009-08-03 01:26:30",1117902,6.024,115.2,0.638,0.067,23,110.8836,27.17,28.19,16.35,0,111.3,13.08,28.01,77.2
"2009-08-03 01:27:00",1117903,5.907,115.8,0.602,0.056,22.97,110.8802,27.16,28.17,16.51,0,111.3,13.08,28.00,77.8
"2009-08-03 01:27:30",1117904,5.856,115.7,1.024,0.054,22.98,110.8754,27.14,28.17,16.51,0,111.3,13.08,27.99,77.7
"2009-08-03 01:28:00",1117905,5.694,114.4,1.354,0.089,22.98,110.8754,27.14,28.17,16.36,0,111.3,13.08,27.99,76.4
"2009-08-03 01:28:30",1117906,5.765,113.1,1.186,0.09,22.99,110.8754,27.14,28.15,16.15,0,111.3,13.08,27.99,75.1
"2009-08-03 01:29:00",1117907,5.741,113.3,0.889,0.067,23.01,110.8754,27.14,28.15,16.1,0,111.3,13.08,27.99,75.3
"2009-08-03 01:29:30",1117908,5.789,112.6,0.738,0.062,23.01,110.8754,27.14,28.16,16.04,0,111.3,13.08,27.99,74.6
"2009-08-03 01:30:00",1117909,5.599,111.3,1.1,0.089,23.07,110.8754,27.14,28.13,15.86,0,111.3,13.09,27.99,73.3
"2009-08-03 01:30:30",1117910,5.864,112.2,0.356,0.043,23.06,110.8754,27.14,28.14,16,0,111.3,13.09,27.99,74.2
"2009-08-03 01:31:00",1117911,5.63,111.5,1.793,0.206,23.09,110.8749,27.14,28.16,15.87,0,111.3,13.09,27.99,73.5
"2009-08-03 01:31:30",1117912,5.531,109,1.45,0.078,23.06,110.8709,27.13,28.14,15.64,0,111.3,13.09,27.98,71.0
"2009-08-03 01:32:00",1117913,5.607,107.8,1,0.111,23.11,110.8662,27.12,28.12,15.46,0,111.3,13.09,27.97,69.8
"2009-08-03 01:32:30",1117914,5.633,106.4,1.092,0.169,23.1,110.8631,27.11,28.12,15.24,0,111.3,13.09,27.96,68.4
"2009-08-03 01:33:00",1117915,5.52,107.4,1.225,0.101,23.1,110.8611,27.11,28.13,15.54,0,111.3,13.09,27.95,69.4
"2009-08-03 01:33:30",1117916,5.479,107,1.839,0.139,23.12,110.8575,27.1,28.11,15.21,0,111.3,13.09,27.94,69.0
"2009-08-03 01:34:00",1117917,5.388,106.6,0.713,0.094,23.12,110.8558,27.09,28.11,15.34,0,111.3,13.09,27.94,68.6
"2009-08-03 01:34:30",1117918,5.268,107.6,0.672,0.052,23.16,110.8527,27.09,28.13,15.51,0,111.3,13.09,27.93,69.6
"2009-08-03 01:35:00",1117919,5.292,107.5,0.661,0.059,23.19,110.853,27.09,28.11,15.25,0,111.3,13.09,27.93,69.5
"2009-08-03 01:35:30",1117920,5.208,106.4,1.028,0.072,23.15,110.8516,27.08,28.11,15.2,0,111.3,13.09,27.93,68.4
"2009-08-03 01:36:00",1117921,5.14,104.5,1.058,0.078,23.13,110.851,27.08,28.1,14.74,0,111.3,13.09,27.93,66.5
"2009-08-03 01:36:30",1117922,5.107,103.1,0.854,0.095,23.18,110.8504,27.08,28.1,14.37,0,111.3,13.09,27.93,65.1
"2009-08-03 01:37:00",1117923,5.082,104.2,0.666,0.032,23.1,110.8502,27.08,28.1,14.3,0,111.3,13.09,27.93,66.2
"2009-08-03 01:37:30",1117924,5.043,103,0.725,0.058,23.16,110.8502,27.08,28.09,14.22,0,111.3,13.09,27.93,65.0
"2009-08-03 01:38:00",1117925,5.09,103.1,0.653,0.056,23.15,110.8502,27.08,28.1,14.21,0,111.3,13.09,27.93,65.1
"2009-08-03 01:38:30",1117926,4.95,101.2,0.829,0.048,23.17,110.8504,27.08,28.1,14.21,0,111.3,13.09,27.93,63.2
"2009-08-03 01:39:00",1117927,4.966,101.2,0.513,0.041,23.16,110.8499,27.08,28.1,14.2,0,111.3,13.1,27.93,63.2
"2009-08-03 01:39:30",1117928,4.979,101.7,0.432,0.052,23.18,110.8504,27.08,28.1,14.19,0,111.3,13.1,27.93,63.7
"2009-08-03 01:40:00",1117929,4.981,101.9,0.449,0.049,23.21,110.8507,27.08,28.1,14.19,0,111.3,13.1,27.93,63.9
"2009-08-03 01:40:30",1117930,4.916,100.7,0.705,0.048,23.17,110.8513,27.08,28.11,14.19,0,111.3,13.1,27.93,62.7
"2009-08-03 01:41:00",1117931,4.963,101.4,0.603,0.054,23.18,110.8524,27.09,28.11,14.19,0,111.3,13.1,27.93,63.4
"2009-08-03 01:41:30",1117932,5.021,99.8,0.934,0.06,23.15,110.8538,27.09,28.11,14.19,0,111.3,13.1,27.94,61.8
"2009-08-03 01:42:00",1117933,4.983,100,0.429,0.069,23.16,110.856,27.09,28.11,14.16,0,111.3,13.1,27.94,62.0
"2009-08-03 01:42:30",1117934,4.933,99.2,0.842,0.073,23.17,110.8576,27.1,28.11,14.16,0,111.3,13.09,27.95,61.2
"2009-08-03 01:43:00",1117935,4.884,98.8,0.872,0.047,23.2,110.8588,27.1,28.12,14.16,0,111.3,13.09,27.95,60.8
"2009-08-03 01:43:30",1117936,4.912,99.9,0.853,0.051,23.19,110.8613,27.11,28.11,14.13,0,111.3,13.09,27.95,61.9
"2009-08-03 01:44:00",1117937,4.855,99.9,0.539,0.072,23.2,110.8665,27.12,28.11,14.12,0,111.3,13.09,27.97,61.9
"2009-08-03 01:44:30",1117938,4.831,99.6,0.596,0.082,23.2,110.8744,27.14,28.13,14.12,0,111.3,13.09,27.99,61.6
"2009-08-03 01:45:00",1117939,4.782,99.2,1.551,0.084,23.25,110.8792,27.15,28.12,14.14,0,111.3,13.09,28.00,61.2
"2009-08-03 01:45:30",1117940,4.861,101.8,1.194,0.074,23.21,110.8805,27.16,28.13,14.18,0,111.3,13.09,28.00,63.8
"2009-08-03 01:46:00",1117941,4.734,102.1,1.73,0.08,23.23,110.8811,27.16,28.12,14.23,0,111.3,13.09,28.01,64.1
"2009-08-03 01:46:30",1117942,4.657,100.1,0.767,0.098,23.22,110.8832,27.16,28.13,14.19,0,111.3,13.09,28.01,62.1
"2009-08-03 01:47:00",1117943,4.703,99.5,1.096,0.114,23.25,110.8818,27.16,28.12,14.18,0,111.3,13.09,28.01,61.5
"2009-08-03 01:47:30",1117944,4.477,100.4,1.061,0.126,23.22,110.8808,27.16,28.14,14.19,0,111.3,13.09,28.01,62.4
"2009-08-03 01:48:00",1117945,4.636,101.1,0.748,0.075,23.21,110.8793,27.15,28.13,14.21,0,111.3,13.09,28.00,63.1